Regional Weather Roundup
Issued by NWS

Home | Current Version | Previous Version | Graphics & Text | Print | Product List | Glossary On
Versions: 1 2 3 4 5 6 7 8 9 10 11 12 13 14 15 16 17 18 19 20 21 22 23 24 25 26 27 28 29 30 31 32 33 34 35 36 37 38 39 40 41 42 43 44 45 46 47 48 49 50
972
ASUS43 KLMK 260302
RWRKY
KENTUCKY REGIONAL WEATHER ROUNDUP
NATIONAL WEATHER SERVICE LOUISVILLE KY
1100 PM EDT WED APR 25 2018

NOTE "FAIR" INDICATES FEW OR NO CLOUDS BELOW 12,000 FEET
WITH NO SIGNIFICANT WEATHER AND/OR OBSTRUCTIONS TO VISIBILITY.

KYZ001>023-026-027-061>063-070>075-260400-
WESTERN AND SOUTH CENTRAL KENTUCKY

CITY           SKY/WX    TMP DP  RH WIND       PRES   REMARKS
PADUCAH        LGT RAIN  57  55  93 CALM      29.94S
HENDERSON      FAIR      61  53  75 NE5       29.94S
OWENSBORO      FAIR      63  50  62 NE3       29.94S
HOPKINSVILLE   LGT RAIN  62  53  72 CALM      29.92F
BOWLING GREEN  CLOUDY    61  52  72 CALM      29.93F
GLASGOW        NOT AVBL
$$

KYZ024-025-028>034-038-045-046-053-260400-
NORTH CENTRAL KENTUCKY

CITY           SKY/WX    TMP DP  RH WIND       PRES   REMARKS
LOUISVILLE/SDF CLOUDY    61  46  57 N3        29.93S
LOUISVILLE/LOU FAIR      59  48  67 N3        29.94S
FORT KNOX      PTCLDY    59  46  63 NE6       29.94S
$$

KYZ035>037-039>044-047>052-055>060-089>105-260400-
NORTHEAST KENTUCKY

CITY           SKY/WX    TMP DP  RH WIND       PRES   REMARKS
LEXINGTON      FAIR      55  48  77 NW5       29.94S
COVINGTON      CLOUDY    54  42  64 NW6       29.93S
FRANKFORT      FAIR      57  45  64 NW5       29.93S
$$

KYZ054-064>069-076>088-106>120-260400-
SOUTHEAST KENTUCKY

CITY           SKY/WX    TMP DP  RH WIND       PRES   REMARKS
JACKSON        FAIR      52  49  89 CALM      29.94F
LONDON         FOG       50  50 100 CALM      29.94F VSB 1
SOMERSET       NOT AVBL
MIDDLESBORO    FAIR      50  50 100 CALM      29.95F
MONTICELLO     NOT AVBL
$$





USA.gov is the U.S. government's official web portal to all federal, state and local government web resources and services.